Location: Cembra
(46.1667°N, 11.2167°E)
Time: 15:05:50
(UTC+00:00)

Daily predictions for brighter satellites

Satellite Brightness Start Highest point End
(mag) Time Altitude Azimuth Time Altitude Azimuth Time Altitude Azimuth
CZ-2C R/B 3.4 17:22:39 10° SSE 17:28:24 89° WSW 17:33:57 10° NNW
Cosmos 1862 Rocket 4.1 17:24:21 10° N 17:28:36 40° ENE 17:32:49 10° SE
Cosmos 2322 Rocket 2.5 17:25:25 10° S 17:30:41 44° ESE 17:36:00 10° NE
Aureole 2 Rocket 3.2 17:30:48 10° N 17:32:44 19° ENE 17:34:37 10° ESE
Sich 1 3.3 17:29:33 10° SSW 17:33:56 78° W 17:38:24 10° N
Nadezhda 3 Rocket 4.3 17:29:43 10° N 17:35:53 48° ENE 17:42:00 10° SSE
Cosmos 1461 3.4 17:31:14 10° SW 17:35:58 77° NW 17:40:44 10° NE
ATLAS 5 CENTAUR R/B 4.2 17:19:57 10° SW 17:36:37 58° NW 17:40:57 10° NE
Meteor 1-25 Rocket 4.3 17:32:09 10° S 17:37:50 65° E 17:43:29 10° NNE
Cosmos 2074 Rocket 4.0 17:35:41 10° S 17:41:55 77° E 17:48:11 10° N
Cosmos 2154 Rocket 4.2 17:36:16 10° SSE 17:42:12 51° E 17:48:11 10° NNE
YAOGAN 1 2.6 17:39:11 10° SSE 17:43:26 62° ENE 17:47:43 10° N
Abrixas rocket 1.8 17:41:08 10° W 17:43:37 61° NNW 17:45:57 11° ENE
Helios 1A Rocket 3.5 17:39:58 10° SE 17:43:41 36° ENE 17:47:25 10° N
APEX 3.5 17:44:02 10° NW 17:46:45 46° WSW 17:49:21 10° S
Cosmos 2219 Rocket 3.7 17:46:06 10° ESE 17:48:37 13° E 17:51:08 10° ENE
COSMO-SKYMED 1 3.2 17:45:42 10° N 17:49:59 62° WNW 17:54:16 10° SSW
GP-B 3.9 17:47:06 10° SE 17:50:54 29° ENE 17:54:43 10° NNE
Cosmos 1992 Rocket 4.1 17:49:28 10° S 17:54:33 56° ESE 17:59:41 10° NNE
SL-16 R/B 2.2 17:49:29 10° SSW 17:55:09 85° ESE 18:00:52 10° NNE
Cosmos 2263 Rocket 3.4 17:50:08 10° NW 17:55:24 45° WSW 18:00:40 10° S
Meteor 1-18 Rocket 4.3 17:50:13 10° N 17:56:10 68° ENE 18:02:02 10° SSE
Cosmos 968 Rocket 3.6 17:51:05 10° NNW 17:56:22 82° WSW 18:01:39 10° SSE
ARGOS 3.2 17:51:11 10° SSE 17:56:31 65° ENE 18:01:55 10° N
USA 234 3.9 17:53:32 10° ENE 17:59:26 35° SE 18:05:19 10° SSW
Cosmos 1486 Rocket 4.1 17:54:49 10° NNW 18:00:08 87° WSW 18:05:27 10° SSE
Cosmos 1515 3.6 17:56:35 10° N 18:00:26 81° E 18:04:14 10° S
Okean 1 3.2 17:56:29 10° N 18:00:31 78° E 18:04:33 10° SSE
Cosmos 1633 Rocket 3.3 17:58:02 10° SSW 18:02:27 77° W 18:06:54 10° N
Cosmos 2184 Rocket 4.2 17:56:22 10° SSW 18:02:32 79° W 18:08:47 10° N
SeaSat 1 2.7 17:58:02 10° NE 18:02:48 46° ESE 18:07:32 10° S
OBJECT-B 2.8 18:03:21 13° ENE 18:03:21 13° ENE 18:04:37 10° NE
Okean 1-7 3.8 18:00:05 10° N 18:04:00 31° ENE 18:07:52 10° SE
H-2A R/B 2.4 18:02:27 10° S 18:07:54 74° WSW 18:13:22 10° NNW
CZ-4 R/B 1.9 18:04:06 10° S 18:07:54 60° W 18:11:47 10° NNW
CZ-2C R/B 2.8 18:02:51 10° NNE 18:08:13 51° E 18:13:26 10° S
SAR-Lupe-4 3.4 18:07:12 10° NNE 18:10:46 71° ESE 18:14:20 10° S
USA 305 4.4 18:07:44 10° WNW 18:11:31 29° N 18:14:50 12° NE
Gbstr 26 Del rocket 4.0 18:09:57 10° W 18:14:14 46° N 18:18:27 15° ENE
SL-8 Rocket 4.4 18:08:37 10° SSE 18:14:15 37° E 18:19:51 10° NNE
Cosmos 2237 4.2 18:08:48 10° SSW 18:14:27 66° ESE 18:20:10 10° NNE
SL-4 R/B 2.5 18:13:36 10° WNW 18:16:56 37° N 18:18:38 22° ENE
Cosmos 1869 Rocket 4.5 18:15:42 10° SE 18:19:19 26° E 18:22:57 10° NNE
USA 307 4.4 18:19:07 10° WNW 18:22:52 28° N 18:25:41 15° NE
USA 186 3.1 18:25:08 17° NNE 18:25:08 17° NNE 18:26:02 10° N
ATLAS CENTAUR R/B 0.9 18:20:39 10° SSW 18:24:14 64° ESE 18:26:57 17° NE
FALCON 9 DEB 3.1 18:21:25 10° WNW 18:24:51 68° NNE 18:26:13 32° ESE
USA 306 4.4 18:22:34 10° WNW 18:26:18 28° N 18:28:56 16° NE
Cosmos 1354 Rocket 3.9 18:21:34 10° NNW 18:26:52 81° ENE 18:32:05 10° SSE
Okean-O 3.6 18:23:27 10° S 18:27:45 49° W 18:32:04 10° NNW
ERS-2 2.5 18:24:24 10° N 18:28:02 65° WNW 18:31:39 10° SSW
Cosmos 44 Rocket 4.2 18:23:13 10° NW 18:28:20 53° WSW 18:33:22 10° SSE
CSL-04 Rocket 3.7 18:23:27 10° SSE 18:29:00 86° WSW 18:34:34 10° NNW
Cosmos 2366 rocket 4.4 18:23:27 10° SSE 18:29:13 39° E 18:35:03 10° NNE
SAR-Lupe-1 4.5 18:26:37 10° N 18:30:12 64° WNW 18:33:45 10° SSW
CSL-04 Debris 4.3 18:24:56 10° SSE 18:30:22 79° WSW 18:35:53 10° NNW
Cosmos 1844 Rocket 2.6 18:25:01 10° NNW 18:30:38 79° ENE 18:36:09 10° SSE
Cosmos 2084 Rocket 3.9 18:26:32 10° NW 18:30:50 63° SW 18:34:58 12° SSE
USA 308 4.4 18:29:48 10° WNW 18:33:32 28° N 18:35:51 18° NE
Cosmos 1666 2.8 18:30:04 10° SSE 18:33:38 47° E 18:37:14 10° NNE
Cosmos 1777 Rocket 4.3 18:30:27 10° NNW 18:35:31 46° ENE 18:37:59 27° ESE
Cosmos 1503 Rocket 4.2 18:31:52 10° NNW 18:37:03 73° WSW 18:42:11 10° SSE
Cosmos 2341 Rocket 3.9 18:31:18 10° S 18:37:33 71° E 18:43:48 10° NNE
Meteor 1-5 Rocket 4.0 18:32:37 10° S 18:37:55 68° E 18:43:24 10° NNE
Cosmos 2333 4.4 18:33:00 10° S 18:38:23 48° ESE 18:43:51 10° NE
Cosmos 1470 Rocket 4.4 18:37:20 10° SSW 18:41:43 52° WNW 18:46:05 10° N
Cosmos 1844 3.6 18:36:39 10° NNW 18:42:28 81° ENE 18:46:58 17° SSE
Okean 3 3.9 18:38:37 10° N 18:42:37 38° ENE 18:42:57 38° E
Ariane Rocket 3.2 18:42:04 27° SE 18:44:26 47° ENE 18:49:20 10° N
Cosmos 2360 Rocket 2.2 18:38:53 10° SSW 18:44:32 87° WNW 18:50:15 10° NNE
Cosmos 2278 Rocket 3.3 18:43:08 10° N 18:47:50 25° NE 18:48:36 25° ENE
Cosmos 1727 Rocket 4.3 18:44:57 10° N 18:50:49 42° ENE 18:52:57 32° ESE
Cosmos 1500 4.3 18:48:51 10° SSW 18:52:26 45° WNW 18:56:02 10° N
Meteor 2-4 Rocket 4.1 18:48:27 10° NNW 18:54:15 68° W 19:00:07 10° S
Cosmos 1703 Rocket 3.7 18:50:03 10° NNW 18:54:28 75° W 18:58:48 10° S
Cosmos 2333 Rocket 2.3 18:49:11 10° S 18:54:39 52° ESE 19:00:11 10° NE
Cosmos 2218 Rocket 4.0 18:49:50 10° S 18:56:08 65° E 19:02:27 10° NNE
Resurs 01 Rocket 2.9 19:12:41 27° NNE 19:12:41 27° NNE 19:15:10 10° N
Cosmos 864 Rocket 4.3 19:06:47 10° S 19:12:55 79° E 19:19:09 10° N
Cosmos 2322 Rocket 3.8 19:09:51 10° WSW 19:14:52 33° NW 19:19:57 10° NNE
Lacrosse 4 Rocket 2.7 19:12:14 10° SSW 19:14:29 29° S 19:14:29 29° S
Cosmos 1959 Rocket 4.3 19:12:15 10° S 19:18:20 89° ESE 19:24:30 10° N
SME Rocket 4.1 19:10:06 10° NNE 19:18:25 87° ESE 19:23:44 10° SSW
Cosmos 192 4.3 19:16:57 10° SSW 19:21:52 84° WNW 19:26:49 10° NNE
SJ-6B 3.5 19:22:30 41° SSW 19:23:35 55° W 19:27:35 10° NNW
COSMOS 2428 2.6 19:19:04 10° SSW 19:24:41 66° ESE 19:24:51 65° E
ASTEX 1 3.4 19:22:44 10° N 19:27:38 79° W 19:30:11 28° SSW
MOS 1 4.3 19:25:33 32° S 19:28:20 77° WSW 19:34:03 10° NNW
Meteor 1-23 Rocket 4.0 19:24:31 10° N 19:30:07 75° ENE 19:30:27 72° ESE
Meteor 1-11 Rocket 3.8 19:25:56 10° SSW 19:31:40 77° WNW 19:37:18 10° N
Cosmos 2219 Rocket 2.0 19:26:04 10° SSW 19:31:40 87° ESE 19:37:19 10° NNE
OBJECT-B 3.1 19:36:24 23° NW 19:36:24 23° NW 19:37:59 10° NNW
Resurs 1-3 4.1 19:38:47 58° NW 19:38:47 58° NW 19:42:26 10° NNW
SeaSat 1 4.2 19:35:51 10° N 19:40:09 31° NW 19:44:26 10° WSW
SJ 16-02 2.6 19:37:02 10° NNW 19:39:34 33° N 19:39:34 33° N
USA 234 3.3 19:39:54 36° NE 19:42:49 78° NW 19:49:21 10° WSW
Cosmos 1066 Rocket 4.5 19:38:18 10° NNW 19:43:59 68° W 19:45:41 45° SSW
Meteor 2-20 Rocket 4.4 19:43:32 10° N 19:49:08 71° NE 19:49:08 71° NE
Cosmos 2322 4.3 19:46:12 10° SW 19:51:48 55° WNW 19:57:26 10° NNE
BREEZE-M DEB (TANK) 3.5 19:49:09 10° WNW 19:51:09 46° NW 19:51:09 46° NW
SL-4 R/B 4.4 19:53:13 10° WNW 19:54:13 18° WNW 19:54:13 18° WNW
Gbstr 26 Del rocket 4.2 19:56:59 10° WNW 20:00:59 49° NNW 20:00:59 49° NNW
ATLAS CENTAUR R/B 3.9 20:01:03 10° WNW 20:03:10 17° NW 20:03:10 17° NW
NOSS 3-3 (A) 4.4 20:11:11 10° NW 20:18:42 88° NE 20:18:42 88° NE
NOSS 3-3 (C) 4.4 20:11:17 10° NW 20:18:46 87° NNE 20:18:46 87° NNE
Cosmos 2278 Rocket 3.3 20:26:45 10° NNW 20:30:28 40° NW 20:30:28 40° NW
Cosmos 2333 Rocket 3.9 20:34:14 10° WSW 20:39:11 30° NW 20:44:13 10° N
Resurs 01 Rocket 4.4 20:50:14 15° NW 20:50:14 15° NW 20:51:18 10° NW
Cosmos 1943 Rocket 4.3 20:46:35 10° NNW 20:48:24 19° N 20:48:24 19° N
Cosmos 2219 Rocket 4.5 21:12:24 10° W 21:16:23 20° NW 21:20:25 10° N
